| time (UTC) | temp F | wind direction | speed knots | gust knots | rain 1hr in | rain 24hr in | rain mn in | humidity % | barometer mb |
| 20260507220039 | 50 | 131 | 1.7 | 3.5 | 0.00 | 1.39 | 1.39 | 96 | 1001.8 |
| 20260507214535 | 51 | 118 | 2.6 | 6.1 | 0.00 | 1.39 | 1.39 | 96 | 1001.9 |
| 20260507213035 | 50 | 121 | 2.6 | 7.0 | 0.01 | 1.39 | 1.39 | 96 | 1002.2 |
| 20260507211545 | 51 | 153 | 0.9 | 7.8 | 0.02 | 1.39 | 1.39 | 97 | 1002.6 |
| 20260507210040 | 50 | 177 | 2.6 | 7.8 | 0.03 | 1.39 | 1.39 | 97 | 1002.0 |
| 20260507204536 | 50 | 141 | 3.5 | 10.4 | 0.05 | 1.39 | 1.39 | 97 | 1001.9 |
| 20260507203031 | 50 | 131 | 6.1 | 12.2 | 0.08 | 1.38 | 1.38 | 96 | 1001.3 |
| 20260507201528 | 50 | 105 | 7.0 | 11.3 | 0.11 | 1.37 | 1.37 | 96 | 1001.9 |
| 20260507200025 | 50 | 149 | 4.3 | 8.7 | 0.16 | 1.35 | 1.35 | 96 | 1003.0 |
| 20260507194533 | 50 | 132 | 2.6 | 8.7 | 0.24 | 1.33 | 1.33 | 96 | 1003.3 |
| 20260507193022 | 51 | 114 | 5.2 | 9.6 | 0.34 | 1.30 | 1.30 | 96 | 1003.3 |
| 20260507191519 | 51 | 116 | 2.6 | 6.1 | 0.39 | 1.26 | 1.26 | 96 | 1003.8 |
| 20260507190029 | 51 | 141 | 1.7 | 7.0 | 0.45 | 1.20 | 1.20 | 96 | 1004.2 |
| 20260507184514 | 51 | 118 | 2.6 | 8.7 | 0.52 | 1.09 | 1.09 | 96 | 1004.5 |
| 20260507183016 | 50 | 130 | 0.9 | 4.3 | 0.73 | 0.96 | 0.96 | 96 | 1004.9 |
| 20260507181513 | 50 | 109 | 1.7 | 6.1 | 0.72 | 0.87 | 0.87 | 96 | 1004.9 |
| 20260507180017 | 50 | 214 | 3.5 | 8.7 | 0.64 | 0.74 | 0.74 | 96 | 1005.2 |
| 20260507174513 | 50 | 214 | 2.6 | 14.8 | 0.48 | 0.55 | 0.55 | 96 | 1005.7 |
| 20260507173017 | 49 | 189 | 0.9 | 7.0 | 0.17 | 0.22 | 0.22 | 96 | 1005.1 |
| 20260507171505 | 49 | 132 | 3.5 | 8.7 | 0.11 | 0.14 | 0.14 | 96 | 1004.9 |
| 20260507170002 | 49 | 129 | 3.5 | 9.6 | 0.07 | 0.10 | 0.10 | 95 | 1005.2 |
| 20260507164636 | 49 | 147 | 2.6 | 9.6 | 0.04 | 0.07 | 0.07 | 95 | 1005.5 |
| 20260507164501 | 49 | 153 | 2.6 | 9.6 | 0.04 | 0.07 | 0.07 | 95 | 1005.5 |
| 20260507163100 | 50 | 153 | 3.5 | 7.8 | 0.02 | 0.05 | 0.05 | 96 | 1005.9 |
| 20260507161600 | 50 | 124 | 3.5 | 9.6 | 0.00 | 0.03 | 0.03 | 96 | 1006.3 |
| 20260507160053 | 50 | 199 | 4.3 | 13.9 | 0.00 | 0.03 | 0.03 | 95 | 1006.8 |
| 20260507154551 | 49 | 153 | 3.5 | 10.4 | 0.00 | 0.03 | 0.03 | 95 | 1007.1 |
| 20260507153046 | 50 | 136 | 5.2 | 11.3 | 0.00 | 0.03 | 0.03 | 95 | 1007.8 |
| 20260507151546 | 51 | 132 | 4.3 | 10.4 | 0.00 | 0.03 | 0.03 | 95 | 1008.2 |
| 20260507150046 | 51 | 118 | 3.5 | 7.8 | 0.00 | 0.03 | 0.03 | 95 | 1008.4 |
| 20260507144541 | 51 | 90 | 3.5 | 10.4 | 0.00 | 0.03 | 0.03 | 95 | 1008.6 |
| 20260507143042 | 52 | 121 | 4.3 | 11.3 | 0.00 | 0.03 | 0.03 | 96 | 1008.8 |
| 20260507141538 | 51 | 153 | 1.7 | 12.2 | 0.00 | 0.03 | 0.03 | 95 | 1009.1 |
| 20260507140041 | 51 | 105 | 5.2 | 12.2 | 0.00 | 0.03 | 0.03 | 96 | 1009.4 |
| 20260507134535 | 51 | 127 | 4.3 | 13.0 | 0.00 | 0.03 | 0.03 | 96 | 1009.9 |
| 20260507133034 | 52 | 133 | 3.5 | 9.6 | 0.00 | 0.03 | 0.03 | 96 | 1009.9 |
| 20260507131531 | 51 | 131 | 4.3 | 9.6 | 0.00 | 0.03 | 0.03 | 96 | 1009.7 |
| 20260507130036 | 51 | 127 | 4.3 | 13.9 | 0.00 | 0.03 | 0.03 | 96 | 1010.2 |
| 20260507124535 | 50 | 122 | 3.5 | 11.3 | 0.00 | 0.03 | 0.03 | 96 | 1010.3 |
| 20260507123024 | 50 | 119 | 4.3 | 10.4 | 0.01 | 0.03 | 0.03 | 96 | 1010.1 |
| 20260507121522 | 50 | 120 | 4.3 | 11.3 | 0.02 | 0.03 | 0.03 | 96 | 1010.3 |
| 20260507120021 | 50 | 168 | 4.3 | 8.7 | 0.02 | 0.03 | 0.03 | 96 | 1010.5 |
| 20260507114518 | 50 | 134 | 5.2 | 10.4 | 0.02 | 0.03 | 0.03 | 96 | 1010.8 |
| 20260507113036 | 50 | 124 | 3.5 | 10.4 | 0.02 | 0.02 | 0.02 | 96 | 1011.0 |
| 20260507111514 | 50 | 214 | 5.2 | 14.8 | 0.00 | 0.01 | 0.01 | 96 | 1010.9 |
| 20260507110016 | 50 | 139 | 4.3 | 13.9 | 0.00 | 0.01 | 0.01 | 96 | 1010.8 |
| 20260507104514 | 50 | 118 | 3.5 | 11.3 | 0.00 | 0.01 | 0.01 | 96 | 1010.9 |
| 20260507103014 | 50 | 168 | 2.6 | 9.6 | 0.00 | 0.01 | 0.01 | 96 | 1010.9 |
| 20260507101515 | 49 | 132 | 2.6 | 10.4 | 0.00 | 0.01 | 0.01 | 96 | 1011.6 |
| 20260507100007 | 50 | 97 | 3.5 | 10.4 | 0.00 | 0.01 | 0.01 | 96 | 1011.4 |
| 20260507094506 | 50 | 158 | 4.3 | 11.3 | 0.00 | 0.01 | 0.01 | 96 | 1011.6 |
| 20260507093004 | 49 | 116 | 3.5 | 11.3 | 0.00 | 0.01 | 0.01 | 96 | 1011.8 |
| 20260507091506 | 49 | 121 | 3.5 | 8.7 | 0.00 | 0.01 | 0.01 | 96 | 1011.8 |
| 20260507090002 | 50 | 101 | 2.6 | 10.4 | 0.00 | 0.01 | 0.01 | 96 | 1011.5 |
| 20260507084503 | 50 | 127 | 5.2 | 13.0 | 0.00 | 0.01 | 0.01 | 96 | 1011.8 |
| 20260507083058 | 50 | 117 | 4.3 | 11.3 | 0.00 | 0.01 | 0.01 | 96 | 1012.0 |
| 20260507081601 | 49 | 158 | 0.9 | 6.1 | 0.00 | 0.01 | 0.01 | 96 | 1012.4 |
| 20260507080059 | 49 | 110 | 1.7 | 5.2 | 0.00 | 0.01 | 0.01 | 96 | 1012.2 |
| 20260507074600 | 49 | 126 | 2.6 | 11.3 | 0.00 | 0.01 | 0.01 | 96 | 1012.1 |
| 20260507073055 | 50 | 124 | 3.5 | 8.7 | 0.00 | 0.01 | 0.01 | 96 | 1012.3 |
| 20260507071551 | 50 | 200 | 3.5 | 7.8 | 0.00 | 0.01 | 0.01 | 96 | 1012.7 |
| 20260507070048 | 49 | 152 | 1.7 | 7.8 | 0.00 | 0.01 | 0.01 | 96 | 1013.3 |
| 20260507064550 | 49 | 116 | 2.6 | 12.2 | 0.00 | 0.01 | 0.01 | 95 | 1013.4 |
| 20260507063045 | 49 | 145 | 2.6 | 11.3 | 0.00 | 0.01 | 0.01 | 96 | 1013.8 |
| 20260507061543 | 49 | 129 | 3.5 | 9.6 | 0.00 | 0.01 | 0.01 | 96 | 1013.7 |
| 20260507060040 | 49 | 201 | 2.6 | 7.8 | 0.00 | 0.01 | 0.01 | 95 | 1013.9 |
| 20260507054538 | 50 | 120 | 5.2 | 8.7 | 0.00 | 0.01 | 0.01 | 95 | 1014.0 |
| 20260507053034 | 50 | 126 | 3.5 | 7.0 | 0.00 | 0.01 | 0.01 | 95 | 1014.5 |
| 20260507051530 | 50 | 120 | 2.6 | 5.2 | 0.01 | 0.01 | 0.01 | 95 | 1014.6 |
| 20260507050030 | 50 | 115 | 0.0 | 3.5 | 0.01 | 0.01 | 0.01 | 95 | 1015.1 |
| 20260507044525 | 50 | 122 | 1.7 | 3.5 | 0.01 | 0.01 | 0.01 | 95 | 1015.3 |
| 20260507043026 | 49 | 114 | 0.9 | 5.2 | 0.01 | 0.01 | 0.01 | 95 | 1015.6 |
| 20260507041520 | 49 | 114 | 0.9 | 4.3 | 0.00 | 0.00 | 0.00 | 95 | 1016.3 |
| 20260507040020 | 49 | 103 | 0.0 | 2.6 | 0.00 | 0.00 | 0.00 | 95 | 1016.3 |
| 20260507034523 | 49 | 106 | 0.0 | 0.9 | 0.00 | 0.00 | 0.00 | 95 | 1016.6 |
| 20260507033016 | 50 | 110 | 0.0 | 2.6 | 0.00 | 0.00 | 0.00 | 95 | 1016.8 |
| 20260507031516 | 50 | 111 | 0.0 | 4.3 | 0.00 | 0.00 | 0.00 | 95 | 1017.2 |
| 20260507030011 | 50 | 106 | 1.7 | 5.2 | 0.00 | 0.00 | 0.00 | 95 | 1017.4 |
| 20260507024514 | 49 | 126 | 3.5 | 8.7 | 0.00 | 0.00 | 0.00 | 95 | 1017.3 |
| 20260507023009 | 49 | 124 | 2.6 | 7.8 | 0.00 | 0.00 | 0.00 | 95 | 1017.6 |
| 20260507021510 | 49 | 134 | 2.6 | 6.1 | 0.00 | 0.00 | 0.00 | 94 | 1017.8 |
| 20260507020008 | 49 | 136 | 3.5 | 7.8 | 0.00 | 0.00 | 0.00 | 94 | 1017.8 |
| 20260507014506 | 49 | 130 | 2.6 | 7.0 | 0.00 | 0.00 | 0.00 | 94 | 1018.0 |
| 20260507013005 | 50 | 105 | 2.6 | 7.8 | 0.00 | 0.00 | 0.00 | 94 | 1018.1 |
| 20260507011506 | 50 | 129 | 4.3 | 7.8 | 0.00 | 0.00 | 0.00 | 94 | 1018.2 |
| 20260507010005 | 50 | 123 | 3.5 | 7.8 | 0.00 | 0.00 | 0.00 | 94 | 1018.4 |
| 20260507004501 | 50 | 123 | 6.1 | 9.6 | 0.00 | 0.00 | 0.00 | 94 | 1018.5 |
| 20260507003116 | 50 | 117 | 4.3 | 7.8 | 0.00 | 0.00 | 0.00 | 94 | 1018.3 |
| 20260507001616 | 50 | 139 | 3.5 | 8.7 | 0.00 | 0.00 | 0.00 | 93 | 1018.2 |
| 20260507000100 | 49 | 95 | 3.5 | 7.8 | 0.00 | 0.00 | 0.00 | 92 | 1018.4 |
| 20260506234557 | 50 | 126 | 6.1 | 12.2 | 0.00 | 0.00 | 0.00 | 92 | 1018.3 |
| 20260506233055 | 50 | 126 | 4.3 | 7.8 | 0.00 | 0.00 | 0.00 | 92 | 1018.3 |
| 20260506231559 | 51 | 125 | 4.3 | 9.6 | 0.00 | 0.00 | 0.00 | 92 | 1018.4 |
| 20260506230056 | 51 | 151 | 4.3 | 11.3 | 0.00 | 0.00 | 0.00 | 91 | 1018.2 |
| 20260506224546 | 51 | 143 | 4.3 | 8.7 | 0.00 | 0.00 | 0.00 | 90 | 1018.1 |
| 20260506223044 | 52 | 158 | 3.5 | 9.6 | 0.00 | 0.00 | 0.00 | 89 | 1017.8 |
| 20260506221559 | 52 | 127 | 3.5 | 7.8 | 0.00 | 0.00 | 0.00 | 88 | 1017.8 |